Location: Luz Observatory
(34.5000°N, 117.2833°W)
Time: 02:44:20
(UTC-07:00)

Daily predictions for brighter satellites

Satellite Brightness Start Highest point End
(mag) Time Altitude Azimuth Time Altitude Azimuth Time Altitude Azimuth
H-2A R/B 4.3 00:05:33 16° W 00:05:33 16° W 00:07:58 10° NW
Cosmos 1943 Rocket 4.1 00:19:04 22° NE 00:19:04 22° NE 00:21:04 10° NE
ATLAS 2AS CENTAUR R/B 4.1 00:21:03 10° NNW 00:28:15 34° NE 00:30:12 30° ENE
NOSS 3-1 (C) 4.2 00:30:08 10° NW 00:36:41 64° WNW 00:36:41 64° WNW
ATLAS 3B CENTAUR R/B 4.4 00:41:50 56° SE 00:41:50 56° SE 01:05:14 10° E
Cosmos 2369 Rocket 4.3 01:21:04 19° NW 01:21:04 19° NW 01:24:34 10° NNW
SeaSat 1 4.4 01:23:59 25° NE 01:23:59 25° NE 01:27:04 10° N
Cosmos 2219 4.5 01:28:45 10° NNW 01:32:20 37° N 01:32:20 37° N
CZ-2C R/B 4.3 01:30:52 10° N 01:33:40 28° NNW 01:33:40 28° NNW
CZ-3B DEB 4.3 01:03:02 10° NW 01:35:47 80° SW 01:39:27 59° SSE
Cosmos 1943 Rocket 4.1 02:00:34 20° NW 02:00:34 20° NW 02:03:54 10° N
ATLAS 2AS CENTAUR R/B 3.6 02:11:52 10° NW 02:17:35 44° WNW 02:17:35 44° WNW
Cosmos 1656 4.2 02:44:43 51° E 02:44:43 51° E 02:49:50 10° NNE
Cosmos 1464 Rocket 3.9 02:53:03 85° WNW 02:53:03 85° WNW 02:59:22 10° N
ATLAS CENTAUR R/B 2.3 02:55:47 58° NE 02:55:47 58° NE 02:59:50 10° NNE
Cosmos 468 Rocket 4.2 02:59:23 65° N 02:59:23 65° N 03:03:47 10° NNE
CZ-2D R/B 3.3 02:55:55 10° NNE 03:00:53 35° E 03:01:53 32° ESE
IRS-1C 4.2 02:56:34 10° N 03:01:27 73° NNW 03:01:27 73° NNW
Milstar 3 Cent rocket 3.3 03:05:20 33° SE 03:05:20 33° SE 03:09:45 10° E
BREEZE-M DEB (TANK) 3.4 03:06:01 61° SE 03:06:01 61° SE 03:09:53 10° NE
Cosmos 1697 Rocket 2.9 03:05:53 58° ESE 03:06:11 59° ESE 03:11:45 10° NNE
Cosmos 2082 3.5 03:05:51 10° NNW 03:11:29 87° W 03:11:29 87° W
Cosmos 1980 Rocket 3.1 03:13:09 35° SE 03:14:18 39° ESE 03:19:31 10° NE
Cosmos 2150 Rocket 3.9 03:09:06 10° NNW 03:14:08 83° N 03:14:08 83° N
Cosmos 2227 Rocket 2.2 03:16:51 10° NNW 03:22:04 63° W 03:22:04 63° W
Cosmos 1513 Rocket 4.4 03:22:38 58° W 03:22:58 59° W 03:28:57 10° N
Meteor 2-5 Rocket 3.7 03:17:34 10° NNW 03:23:25 65° W 03:23:37 65° WSW
Cosmos 1898 Rocket 3.4 03:19:38 10° NNW 03:24:45 72° W 03:24:45 72° W
Cosmos 2322 Rocket 4.4 03:22:19 10° SE 03:25:49 17° E 03:29:22 10° ENE
Cosmos 841 Rocket 3.4 03:30:03 67° S 03:30:43 80° ESE 03:36:01 10° NNE
Cosmos 972 4.4 03:26:07 10° NNW 03:30:38 66° WNW 03:30:38 66° WNW
Cosmos 1076 Rocket 4.1 03:27:35 10° N 03:31:49 52° E 03:32:40 44° ESE
Cosmos 1763 Rocket 3.3 03:36:56 68° SW 03:37:32 77° WNW 03:42:45 10° NNE
Cosmos 1937 Rocket 3.3 03:32:33 10° NNW 03:37:44 79° WSW 03:38:35 62° S
Cosmos 1766 3.6 03:41:13 57° NNW 03:41:13 57° NNW 03:44:32 10° N
Okean O Rocket 3.3 03:37:59 10° NE 03:41:48 29° E 03:44:05 19° SE
NOSS 3-4 (A) 3.9 03:35:27 10° NNW 03:42:32 80° ENE 03:50:03 10° SSE
NOSS 3-4 (C) 3.9 03:35:33 10° NNW 03:42:41 79° ENE 03:50:13 10° SE
Resurs 1-4 Rocket 2.0 03:38:06 10° NNE 03:43:23 87° WNW 03:44:39 54° SSW
Cosmos 2297 Rocket 2.1 03:38:24 10° NNW 03:43:57 61° WSW 03:44:55 53° SSW
CZ-3 R/B 4.1 03:27:43 30° SW 03:45:21 52° S 03:55:21 10° E
ADEOS 4.3 03:42:28 10° N 03:47:11 35° WNW 03:47:32 35° W
ARIANE 5 R/B 2.7 03:44:41 10° N 03:49:43 55° WNW 03:50:33 49° WSW
Cosmos 1378 3.1 03:47:01 10° N 03:50:38 80° NNW 03:50:38 80° NNW
Cosmos-2242 3.0 03:53:18 53° S 03:54:17 79° E 03:58:35 10° N
Cosmos 2360 4.5 03:52:15 33° S 03:54:46 64° ESE 04:00:25 10° NNE
UNKNOWN OBJECT B 2.6 03:53:57 10° N 03:57:51 86° WNW 03:58:13 72° SSW
OAO 1 4.4 03:55:36 33° W 03:58:09 87° N 04:03:39 10° E
SL-16 R/B 3.6 03:54:08 14° SSE 03:58:16 33° ESE 04:03:15 10° NE
SL-16 R/B 2.4 03:55:10 28° S 03:58:30 68° WSW 04:04:40 10° NNW
Cosmos 1408 Rocket 3.4 03:55:27 10° N 03:59:50 74° W 04:00:53 50° SSW
Cosmos 1758 3.2 04:00:44 58° S 04:01:29 89° W 04:05:31 10° N
ERS-2 4.4 03:59:35 10° NNW 04:00:53 14° NW 04:00:53 14° NW
Cosmos 1766 Rocket 3.4 03:58:08 10° N 04:02:32 76° W 04:03:54 43° S
EO 1 Del DPAF 3.2 04:05:43 59° SW 04:06:06 64° WSW 04:09:57 10° NNW
Cosmos 1953 2.2 04:05:58 56° SSW 04:06:43 73° W 04:10:47 10° N
Cosmos 540 Rocket 3.8 04:04:42 26° S 04:07:30 64° ESE 04:12:38 10° NNE
GPS 2-04 Rocket1 2.7 04:07:08 43° WNW 04:08:20 73° N 04:12:09 10° E
ISS -1.7 04:05:26 10° NNW 04:08:28 35° NE 04:11:30 10° ESE
Nadezhda 4 Rocket 4.2 04:02:49 10° NNW 04:08:44 49° W 04:11:23 31° SW
Meteor 1-24 Rocket 4.1 04:03:39 10° NNW 04:09:05 44° W 04:11:01 33° SW
Cosmos 1655 Rocket 4.5 04:05:56 10° N 04:12:17 63° E 04:18:35 10° SSE
Cosmos 1805 3.2 04:11:54 51° SW 04:12:44 69° W 04:16:39 10° N
Cosmos 1441 Rocket 3.5 04:11:20 10° NNW 04:15:12 49° W 04:15:46 45° SW
IRS-1D 4.3 04:11:32 10° N 04:15:54 32° WNW 04:17:07 28° W
Cosmos 371 Rocket 4.1 04:15:01 16° S 04:18:37 47° ESE 04:23:14 10° NNE
Cosmos 1842 Rocket 3.7 04:17:21 21° S 04:20:18 74° E 04:24:47 10° N
CZ-4B R/B 3.4 04:17:12 10° NNE 04:22:42 68° ESE 04:27:30 13° S
UNK 4.5 04:25:58 30° WSW 04:26:48 32° W 04:31:00 10° NW
SL-24 R/B - RUBIN 2 4.3 04:27:01 23° SSW 04:30:37 86° ESE 04:36:54 10° NNE
Cosmos 2227 4.3 04:25:46 10° NNW 04:31:34 82° ENE 04:37:18 10° SSE
ASTRO E2 3.5 04:33:30 29° SW 04:34:11 31° SSW 04:37:47 10° SE
ATLAS CENTAUR R/B 4.0 04:32:07 10° WNW 04:34:31 13° NW 04:36:56 10° NNW
CZ-2D R/B 4.2 04:33:42 10° N 04:37:45 39° WNW 04:39:52 24° SW
Cosmos 2026 Rocket 4.0 04:33:38 10° N 04:39:56 72° W 04:46:08 10° S
CZ-2D R/B 3.4 04:36:19 10° NNW 04:40:43 26° WNW 04:43:13 18° WSW
USA 81 4.1 04:37:03 17° SSW 04:41:08 59° W 04:46:21 10° N
Cosmos 1544 3.4 04:40:15 26° SW 04:41:55 46° W 04:45:27 10° N
RESURS DK-1 3.4 04:39:35 10° N 04:43:36 48° ENE 04:47:36 10° SE
CZ-2C R/B 3.7 04:40:34 10° S 04:45:15 66° WSW 04:49:53 10° NNW
Meteor 1-21 Rocket 4.4 04:40:34 10° NNW 04:46:22 57° W 04:52:08 10° S
Aureole 1 Rocket 3.9 04:41:56 16° SSW 04:46:26 75° WNW 04:53:39 10° NNE
Cosmos 1461 3.6 04:45:28 10° NNW 04:49:29 53° ENE 04:53:20 10° SE
Cosmos 1697 Rocket 4.4 04:47:38 12° W 04:50:33 18° WNW 04:54:16 10° NNW
Aurora 2 Rocket 3.7 04:53:49 13° SSW 04:54:09 14° S 04:55:51 10° SSE
ADEOS II 3.0 04:49:15 10° NNE 04:54:21 49° E 04:59:25 10° S
DELTA 2 R/B (1) 3.9 04:50:37 17° SW 04:54:47 56° SSE 05:00:15 10° ENE
Abrixas 4.3 04:52:13 10° NW 04:55:05 34° NNE 04:57:56 10° E
Cosmos 1674 2.6 04:54:09 10° NNW 04:57:53 66° W 05:01:36 10° S
Cosmos 1980 Rocket 3.5 04:54:56 14° WSW 04:58:23 25° WNW 05:02:58 10° N
Cosmos 2360 Rocket 3.4 04:53:35 10° S 04:58:47 41° ESE 05:04:02 10° NE
GEOS 3 Rocket 4.4 04:57:08 10° S 05:01:39 29° WSW 05:06:09 10° WNW
CZ-4B DEB 4.4 04:56:17 10° N 05:01:43 57° WNW 05:07:04 10° SSW
GRACE-1 3.8 05:02:01 10° S 05:04:52 77° W 05:07:45 10° N
Cosmos 372 Rocket 3.9 05:00:01 10° NNW 05:05:06 72° WSW 05:10:09 10° S
GRACE-2 3.8 05:02:27 10° S 05:05:18 77° W 05:08:11 10° N
ARGOS Delta rocket 4.2 05:02:15 10° N 05:07:09 49° WNW 05:11:45 10° SSW
Cosmos 1470 3.5 05:05:21 12° SW 05:08:34 34° W 05:12:12 10° NNW
Cosmos 2322 Rocket 2.5 05:04:10 11° SW 05:09:21 52° WNW 05:14:49 10° N
Cosmos 2151 3.0 05:05:25 10° N 05:09:45 85° W 05:14:02 10° S
Cosmos 1500 Rocket 4.2 05:06:30 10° NNW 05:10:30 35° W 05:14:27 10° SSW
SWAS 4.5 05:07:07 10° SSW 05:11:23 87° ESE 05:15:42 10° NNE
Cosmos 1437 4.5 05:10:18 10° NW 05:12:32 17° W 05:14:27 11° SW
Cosmos 1125 Rocket 4.2 05:08:22 10° NW 05:12:59 33° W 05:17:34 10° SSW
CZ-4B R/B 3.7 05:10:20 10° N 05:13:46 31° WNW 05:17:05 10° SW
Okean O Rocket 3.1 05:14:41 10° NNW 05:17:59 21° WNW 05:21:16 10° WSW
Meteor PRIRODA 3.7 05:14:57 10° NNE 05:18:38 83° ESE 05:22:18 10° S
CSL-04 DEB 4.3 05:17:33 10° N 05:21:29 70° WNW 05:25:23 10° SSW
Alouette 2 Rocket 4.1 05:22:44 10° N 05:26:21 61° E 05:30:55 10° SSE
Cosmos 304 Rocket 4.2 05:23:29 10° S 05:28:15 68° ESE 05:33:03 10° NNE
ADEOS Rocket 3.4 05:26:45 10° N 05:33:20 78° WNW 05:40:39 10° SSW
